Location: Unspecified
(0.0000°N, 0.0000°E)
Time: 09:14:00
(UTC+02:00)

Cosmos 1125 Rocket - Visible Passes

Search period start: 26 March 2017 00:00
Search period end: 05 April 2017 01:00
Orbit: 758 x 780 km, 74.0° (Epoch: 24 March)

Date Brightness Start Highest point End Pass type
(mag) Time Alt. Az. Time Alt. Az. Time Alt. Az.
26 Mar 4.0 20:57:13 10° SSW 21:02:21 62° WNW 21:07:28 10° N visible
27 Mar 3.5 20:20:34 10° S 20:25:42 63° ESE 20:30:49 10° NNE visible
28 Mar 7.2 07:15:35 10° ENE 07:16:23 10° ENE 07:17:12 10° E visible
28 Mar 6.6 21:28:00 10° WSW 21:30:49 15° WNW 21:33:39 10° NW visible
29 Mar 5.6 20:49:40 10° SW 20:54:10 30° WNW 20:58:39 10° NNW visible
30 Mar 5.0 07:39:52 10° N 07:44:53 44° ENE 07:49:55 10° SSE visible
31 Mar 6.3 07:04:12 10° NNE 07:08:14 22° ENE 07:12:16 10° SE visible
01 Apr 7.0 06:30:46 10° ENE 06:31:34 10° ENE 06:32:22 10° E visible
01 Apr 6.7 20:43:09 10° WSW 20:45:59 15° WNW 20:48:49 10° NW visible
02 Apr 3.6 07:31:24 10° NNW 07:36:43 90° WSW 07:42:02 10° SSE visible
03 Apr 4.8 06:55:03 10° N 07:00:04 44° ENE 07:05:05 10° SSE visible
04 Apr 6.0 06:19:23 10° NNE 06:23:24 22° ENE 06:27:26 10° SE visible
